Погода в Славгороде

Хотите узнать прогноз погоды в Славгороде? Тогда Вам сюда: Погода в Славгороде

Поиск расширенной информации на нашем сайте:

Полезная информация:

Новости сайта



02.01.2020
Опубликован Долгосрочный прогноз погоды по городам России и ближнего зарубежья на январь 2020 года.
Карты: Прогноз на январь и февраль 2020 года, Сравнение прогнозируемой аномалии приземной температуры воздуха на январь 2020 года по разным моделям.




Погода в Славгороде - сегодня

Время (UTC), дата Ветер
(°,м/с) 
Видим.   Явления Облачность Т
(°С)
Тd
(°С)
f(%) Тe
(°С)
Pmin
(гПа)
dP
(гПа)
Po
(мм)
O2
(г/м3)
Тmin Tmax R s Состояние
почвы
15 19.10.20 190 (Ю) 20000 м    8/0 средняя 
[Ac trans]
+4 -4.4 54 +1  1027.4  -2.8  759  302           
18 19.10.20 200 (Ю) 7-11{12}  20000 м    ясно 
+3.2 -5.9 51 1024.4  -3.1  756  302           
21 19.10.20 210 (ЮЗ) 5{12}  20000 м    10/0 верхняя 
[Ci sp]
+2.7 -6.6 50 1021.9  -2.5  755  302           
00 20.10.20 200 (Ю) 20000 м    ясно 
+0.9 -6.1 59 -2  1020.2  -1.8  753  303  +0.8         
03 20.10.20 230 (ЮЗ) 20000 м    6/0 средняя, верхняя 
[Ac trans|Ci sp]
+3.9 -4.4 55 +2  1019.7  -0.3  753  300  +0.3         
06 20.10.20 250 (З) 20000 м    4/0 средняя, верхняя 
[Ac trans|Ci sp]
+12.6 -0.6 40 +12  1018.5  -0.7  752  290           
09 20.10.20 260 (З) 20000 м    ясно 
+16.9 -0.1 32 +17  1017.6  -0.6  752  285           
12 20.10.20 210 (ЮЗ) 20000 м    3/0 верхняя 
[Ci sp]
+10.9 +0.7 49 +11  1018  752  291    +17.3       
15 20.10.20 190 (Ю) 20000 м    3/0 верхняя 
[Ci sp]
+7.3 +0.9 64 +7  1018.2  752  295           
18 20.10.20 200 (Ю) 20000 м    ясно 
+5.8 -0.2 65 +5  1017.7  -0.5  752  297           
21 20.10.20 200 (Ю) 20000 м    ясно 
+3.9 -4.8 53 +2  1016.6  -1.2  751  299           
00 21.10.20 140 (ЮВ) 20000 м    1/0 верхняя 
[Ci sp]
+1 -5.7 61 1015.5  -1.3  750  302  +1         
03 21.10.20 180 (Ю) 20000 м    ясно 
+4.5 -5 50 +2  1013.6  -1.6  749  297  +0.2         
06 21.10.20 180 (Ю) 20000 м    1/0 верхняя 
[Ci sp]
+12.4 -6.8 26 +11  1010.8  -2.4  747  289           
09 21.10.20 190 (Ю) 6{10}  20000 м    1/0 верхняя 
[Ci sp]
+17.1 -7.5 18 +17  1007.3  -3.2  744  283           
12 21.10.20 190 (Ю) 20000 м    8/0 верхняя 
[Ci sp]
+9.3 -4.8 37 +8  1005.9  -1.8  743  290    +17.2       
15 21.10.20 180 (Ю) 20000 м    6/0 верхняя 
[Ci sp]
+8 -4 42 +7  1003.3  -2.6  741  291           
18 21.10.20 210 (ЮЗ) 6-11{11}  20000 м    3/0 верхняя 
[Ci sp]
+9.7 -5.7 33 +8  1000.1  -3  739  288           
21 21.10.20 230 (ЮЗ) 4{11}  20000 м    ясно 
+8.1 -5.7 37 +7  999.3  -0.9  738  289           
00 22.10.20 250 (З) 6-14{14}  20000 м    ясно 
+7.5 -3 47 +5  1000.6  1.2  739  290  +7.2         
03 22.10.20 270 (З) 6{14}  20000 м    10/10 660 м кучево-дожд. 
[Cb cap]
+5.3 +1.1 74 +3  1004.6  3.8  742  293  +4.9         
06 22.10.20 260 (З) 7-12{13}  20000 м    10/8 720 м кучево-дожд., средняя 
[Cb cap|Ac trans]
+4.4 -1.4 66 +1  1008.1  3.5  745  295           
09 22.10.20 270 (З) 7-13{15}  20000 м    6/3 600 м кучево-дожд., верхняя 
[Cb cap|Ci sp]
+7.7 -5 40 +5  1009.4  1.4  746  293           
12 22.10.20 250 (З) 2{14}  20000 м    3/3 600 м кучево-дожд. 
[Cb cap]
+4.1 -5.6 49 +4  1011.8  2.1  747  297    +7.8       
15 22.10.20 210 (ЮЗ) 20000 м    4/0 верхняя 
[Ci sp]
+3.4 -5.4 52 +1  1013  1.2  748  298           
Время (UTC), дата Ветер
(°,м/с) 
Видим.   Явления Облачность Т
(°С)
Тd
(°С)
f(%) Тe
(°С)
Pmin
(гПа)
dP
(гПа)
Po
(мм)
O2
(г/м3)
Тmin Tmax R s Состояние
почвы

Для получения пояснительной информации подведите курсор к названию столбца.

ПОГОДА в Славгороде - архив

Всё, что Вы хотите узнать о погоде в Славгороде - удобно и подробно!

Выберите нужную дату (начиная с 1 января 2019* года) и нажмите кнопку "Найти".
Будут отображены архивные сводки погоды по пункту Славгород, начиная с указанной даты.


Отображать данные в формате CSV (для использования в таблицах Excel)


Внимание! Наш архив погоды предназначен исключительно для личного некоммерческого использования в познавательных целях. Если Вам необходимы официальные справки о состоянии погоды (для производственных, юридических, коммерческих и т.п. целей), обращайтесь в органы Росгидромета.

*Примечание: данная дата относится к архиву по метеостанциям СССР (Россия, СНГ, Балтия).
Архив по метеостанциям Зарубежной Европы и Азии (кроме Китая) хранится 10 дней, по другим регионам земного шара (Китай, Африка, Америка, Австралия, Океания) - 1 день.

Славгород - район местоположения метеостанции


Название, широта, долгота, высота метеостанции:
Славгород 53°ш. 78.6°д. 126 м над ур. моря [Российская Федерация]

Дополнительная информация

В oтличие oт бoльшинства пoгoдных сайтoв мы публикуем пoдрoбную метеoинфoрмацию в детальнoм прoфессиoнальнoм фoрмате.

Характеристики температуры и влажнoсти вoздуха измеряются на высoте 2 м в тени вдали oт зданий и деревьев.
Скoрoсть ветра измеряется на высoте 10 м (на урoвне рoста челoвека скoрoсть ветра ниже в 1.5-2 раза). Если метеoстанция нахoдится в гoрoде или в лесу, тo скoрoсть ветра занижена на 2-4 м/с пo сравнению с oткрытым местoм. Скoрoсть ветра над акватoриями крупных рек и oзёр, а также на вершинах хoлмoв на 2-5 м/с выше, чем в oбычных услoвиях.
Атмoсфернoе давление в разных тoчках местнoсти мoжет значительнo oтличаться oт давления на метеoстанции, в зависимoсти oт услoвий рельефа (при пoдъёме на 10 м давление пoнижается примернo на 1 мм рт.ст.).